Temp
49 50 51 52 52 53 53 53 53 53 53 53 53 54 53 54 53 53 54 55 56 57 57 58 58 58 58 58 58 57 56 56 57 56 55 54 53 53 53 53 52 53
48 48 48 49 50 50 50 51 52 52 52 52 52 52 52 51 51 51 52 52 53 54 56 56 57 57 57 57 57 57 57 56 55 55 54 53 53 53 53 53 52 53
46 46 47 47 49 49 49 50 49 50 50 51 51 50 51 50 50 50 50 51 51 52 53 54 55 55 56 56 56 56 55 55 55 56 54 53 53 52 53 52 52 52
45 45 46 47 47 47 48 48 48 48 48 48 49 50 49 49 49 49 49 48 49 50 51 51 52 54 54 54 54 53 54 54 54 55 54 54 54 54 54 54 53 52
44 44 45 45 46 46 46 46 47 47 47 48 48 48 47 47 47 47 47 47 47 48 49 49 50 51 51 51 52 52 52 52 53 53 52 52 53 53 53 53 52 51
42 42 43 43 44 44 45 45 46 46 47 46 47 47 47 46 46 46 46 46 46 46 47 47 48 48 48 49 49 50 51 50 51 51 50 50 51 51 51 50 50 50
41 41 42 42 42 42 43 44 44 44 45 45 43 44 45 44 44 45 46 46 46 45 46 46 47 47 47 47 47 47 48 49 49 49 49 49 49 49 49 50 49 49
40 40 40 39 39 40 40 41 42 42 43 41 42 44 43 44 44 45 45 45 45 45 45 45 46 47 47 46 45 46 47 48 48 47 47 48 48 47 48 48 48 47
39 39 39 38 38 40 40 40 41 40 40 40 41 42 41 42 43 43 43 43 43 44 44 44 45 45 46 46 46 46 46 46 47 46 46 46 46 46 46 45 44 44
39 39 38 39 39 40 39 40 39 39 38 38 39 39 39 40 40 41 41 41 41 41 42 42 42 43 43 44 45 45 45 46 46 46 46 46 46 45 45 44 44 44
40 39 39 39 39 39 39 39 38 38 38 39 39 39 39 39 39 39 39 39 40 41 42 41 42 42 43 43 43 44 44 45 45 45 45 45 45 45 43 44 43 43
39 40 39 39 39 39 39 38 39 39 39 38 38 39 39 38 39 39 39 40 40 41 41 41 42 42 41 42 42 43 43 43 43 43 43 44 44 44 44 44 43 43
39 39 38 39 38 38 38 39 39 38 39 39 38 38 38 38 38 39 39 39 39 39 40 40 40 41 42 42 42 43 43 42 42 42 42 42 43 43 43 43 43 43
38 38 38 38 38 38 38 38 39 39 39 39 38 38 38 38 38 38 39 38 39 39 39 39 39 40 40 41 41 42 41 41 41 41 41 41 42 42 42 42 42 42
37 38 38 38 37 38 38 38 38 38 38 38 38 39 38 38 38 38 38 38 38 38 38 39 39 39 40 40 40 41 41 40 40 40 40 40 40 41 41 41 41 41
36 36 37 36 37 37 37 37 37 37 37 37 37 37 38 38 38 38 38 37 38 38 38 38 39 40 38 39 39 40 40 40 40 40 40 40 39 40 40 40 41 41
35 36 35 36 36 35 36 36 36 36 36 35 36 36 37 37 37 37 38 38 38 38 38 38 39 39 38 40 41 41 41 40 39 39 39 39 39 39 39 40 40 40
35 35 35 35 35 35 35 35 35 34 34 35 35 35 36 36 35 36 36 37 37 37 37 37 38 38 39 40 41 41 41 40 39 39 39 39 39 39 39 39 39 39
35 35 35 35 35 34 34 34 33 34 34 34 34 35 35 34 36 35 36 36 36 36 36 37 37 38 39 40 40 41 41 40 40 39 39 38 39 39 39 39 39 38
34 34 34 35 34 34 34 34 34 34 34 35 34 34 34 34 34 34 35 35 36 36 36 36 37 37 39 40 40 40 40 40 40 39 39 39 39 39 39 38 38 38
34 34 33 34 34 33 33 34 34 34 34 35 35 34 34 34 34 34 35 34 35 35 35 36 36 37 39 39 40 40 41 40 40 39 39 39 39 39 38 38 38 38
33 32 32 33 33 32 32 33 33 33 33 34 34 34 34 34 35 34 34 34 34 34 34 35 36 38 38 39 39 40 40 38 38 38 38 38 38 38 38 38 38 37
32 31 31 31 31 31 31 31 31 32 32 33 32 33 33 33 33 33 34 33 33 33 33 33 34 36 37 38 39 39 39 37 36 36 36 36 37 38 38 37 37 37
31 31 30 30 30 30 30 30 31 31 31 31 30 30 31 32 32 32 33 33 32 32 32 32 33 34 35 37 38 38 37 36 36 36 35 36 36 37 37 37 37 35
30 30 29 29 29 29 29 29 29 29 30 30 30 30 30 31 31 31 31 31 31 31 31 31 31 32 34 35 36 37 37 35 36 35 35 35 35 36 37 36 36 34
29 28 28 28 28 28 29 29 29 28 29 29 29 29 29 30 30 29 29 30 31 30 30 30 30 30 32 34 35 36 37 36 36 35 34 34 35 35 36 35 35 34
MSLP
1021.24 1021.28 1021.26 1021.22 1021.14 1021.08 1021.02 1021.00 1020.92 1020.96 1020.90 1020.94 1020.94 1020.78 1020.82 1020.66 1020.78 1020.84 1020.78 1020.74 1020.64 1020.56 1020.50 1020.48 1020.48 1020.50 1020.50 1020.48 1020.48 1020.50 1020.42 1020.28 1020.26 1020.30 1020.46 1020.60 1020.62 1020.70 1020.72 1020.62 1020.82 1020.92
1021.16 1021.30 1021.32 1021.34 1021.26 1021.20 1021.14 1021.10 1021.00 1020.98 1020.84 1020.82 1020.74 1020.66 1020.60 1020.62 1020.58 1020.66 1020.58 1020.56 1020.50 1020.42 1020.28 1020.24 1020.18 1020.14 1020.16 1020.18 1020.14 1020.14 1020.06 1020.08 1020.00 1020.02 1020.08 1020.10 1020.06 1020.26 1020.16 1020.18 1020.28 1020.28
1021.26 1021.20 1021.20 1021.14 1021.08 1021.04 1021.02 1021.00 1021.04 1020.96 1020.88 1020.68 1020.70 1020.62 1020.48 1020.50 1020.48 1020.48 1020.42 1020.34 1020.32 1020.24 1020.20 1020.10 1020.02 1019.88 1019.80 1019.70 1019.72 1019.78 1019.78 1019.74 1019.66 1019.62 1019.72 1019.60 1019.68 1019.72 1019.58 1019.78 1019.86 1019.90
1021.12 1021.22 1021.16 1021.10 1021.10 1021.02 1021.00 1021.00 1020.90 1020.90 1020.86 1020.78 1020.56 1020.46 1020.44 1020.40 1020.42 1020.30 1020.22 1020.24 1020.20 1020.04 1019.98 1019.96 1019.84 1019.76 1019.72 1019.70 1019.70 1019.58 1019.40 1019.30 1019.10 1019.20 1019.20 1019.10 1019.08 1019.10 1019.08 1019.22 1019.24 1019.34
1021.14 1021.04 1021.08 1021.08 1021.04 1021.02 1021.04 1021.00 1020.86 1020.76 1020.70 1020.56 1020.44 1020.36 1020.34 1020.28 1020.26 1020.18 1020.12 1020.10 1020.08 1019.96 1019.92 1019.82 1019.76 1019.68 1019.66 1019.62 1019.60 1019.46 1019.34 1019.20 1019.06 1019.14 1019.00 1018.78 1018.56 1018.76 1018.60 1018.82 1018.66 1018.68
1021.24 1021.28 1021.22 1021.16 1021.10 1021.08 1021.02 1020.96 1020.80 1020.72 1020.60 1020.46 1020.24 1020.18 1020.16 1020.12 1020.08 1019.98 1019.94 1019.96 1019.96 1019.94 1019.86 1019.78 1019.74 1019.64 1019.66 1019.56 1019.52 1019.34 1019.18 1019.06 1018.86 1019.00 1018.80 1018.56 1018.44 1018.50 1018.50 1018.52 1018.44 1018.32
1021.34 1021.32 1021.16 1021.18 1021.10 1021.14 1021.12 1020.96 1020.88 1020.78 1020.64 1020.46 1020.40 1020.20 1020.10 1020.08 1019.98 1019.86 1019.80 1019.78 1019.76 1019.74 1019.68 1019.60 1019.54 1019.48 1019.52 1019.56 1019.46 1019.28 1019.08 1018.92 1018.78 1018.78 1018.58 1018.28 1018.30 1018.20 1018.26 1018.26 1018.16 1018.02
1021.34 1021.36 1021.30 1021.30 1021.24 1021.18 1021.12 1020.96 1020.84 1020.70 1020.58 1020.50 1020.36 1020.12 1020.16 1020.06 1019.94 1019.82 1019.78 1019.72 1019.66 1019.54 1019.46 1019.36 1019.30 1019.20 1019.22 1019.30 1019.22 1019.08 1018.84 1018.74 1018.64 1018.56 1018.40 1018.16 1018.18 1017.96 1017.96 1018.02 1017.96 1017.84
1021.42 1021.30 1021.38 1021.34 1021.28 1021.18 1021.02 1020.90 1020.76 1020.64 1020.60 1020.48 1020.30 1020.12 1020.08 1020.02 1019.88 1019.78 1019.72 1019.68 1019.56 1019.42 1019.28 1019.18 1019.08 1019.04 1019.04 1019.06 1018.90 1018.76 1018.48 1018.28 1018.22 1018.16 1017.98 1017.82 1017.76 1017.58 1017.66 1017.76 1017.78 1017.62
1021.64 1021.70 1021.64 1021.52 1021.32 1021.20 1021.02 1020.86 1020.72 1020.56 1020.48 1020.40 1020.24 1020.18 1020.02 1019.90 1019.86 1019.72 1019.64 1019.54 1019.42 1019.30 1019.24 1019.14 1019.08 1018.98 1018.90 1018.82 1018.60 1018.40 1018.14 1017.92 1017.86 1017.82 1017.66 1017.48 1017.30 1017.18 1017.22 1017.30 1017.16 1017.12
1021.54 1021.54 1021.38 1021.24 1021.16 1021.12 1020.96 1020.88 1020.70 1020.58 1020.44 1020.28 1020.18 1020.02 1019.88 1019.76 1019.64 1019.62 1019.52 1019.44 1019.28 1019.08 1018.96 1018.90 1018.82 1018.80 1018.72 1018.58 1018.42 1018.26 1018.04 1017.76 1017.58 1017.46 1017.26 1017.10 1016.96 1016.88 1016.88 1016.92 1016.86 1016.72
1021.48 1021.36 1021.28 1021.24 1021.16 1021.02 1020.88 1020.76 1020.62 1020.46 1020.30 1020.20 1020.12 1019.92 1019.78 1019.68 1019.52 1019.38 1019.28 1019.06 1019.02 1018.88 1018.82 1018.68 1018.58 1018.54 1018.44 1018.26 1018.12 1018.00 1017.84 1017.64 1017.44 1017.30 1017.08 1016.92 1016.72 1016.58 1016.52 1016.48 1016.36 1016.20
1021.58 1021.52 1021.54 1021.38 1021.26 1021.14 1020.96 1020.72 1020.52 1020.38 1020.20 1020.02 1019.94 1019.86 1019.68 1019.46 1019.34 1019.20 1019.04 1018.96 1018.74 1018.66 1018.54 1018.42 1018.34 1018.28 1018.16 1017.98 1017.82 1017.64 1017.44 1017.24 1017.08 1016.96 1016.80 1016.66 1016.42 1016.28 1016.20 1016.12 1015.98 1015.86
1021.84 1021.80 1021.66 1021.54 1021.40 1021.24 1020.98 1020.76 1020.56 1020.30 1020.12 1019.96 1019.84 1019.62 1019.46 1019.34 1019.18 1019.04 1018.86 1018.82 1018.58 1018.46 1018.32 1018.24 1018.12 1018.00 1017.86 1017.70 1017.56 1017.42 1017.26 1017.02 1016.84 1016.64 1016.40 1016.22 1016.04 1015.96 1015.88 1015.76 1015.62 1015.48
1022.02 1021.86 1021.80 1021.60 1021.44 1021.20 1020.94 1020.72 1020.56 1020.40 1020.20 1019.96 1019.74 1019.50 1019.32 1019.18 1019.08 1018.96 1018.70 1018.42 1018.30 1018.22 1018.04 1017.98 1017.88 1017.66 1017.50 1017.38 1017.26 1017.06 1016.98 1016.76 1016.50 1016.34 1016.12 1015.86 1015.62 1015.46 1015.36 1015.28 1015.16 1015.02
1022.22 1022.08 1021.88 1021.72 1021.46 1021.24 1021.06 1020.90 1020.70 1020.46 1020.26 1020.02 1019.78 1019.60 1019.40 1019.14 1018.94 1018.80 1018.64 1018.38 1018.10 1017.88 1017.78 1017.68 1017.56 1017.34 1017.10 1016.98 1016.94 1016.80 1016.58 1016.36 1016.12 1015.94 1015.80 1015.58 1015.32 1015.04 1014.80 1014.72 1014.60 1014.48
1022.40 1022.26 1022.06 1021.82 1021.62 1021.46 1021.28 1021.02 1020.76 1020.56 1020.36 1020.10 1019.88 1019.68 1019.44 1019.18 1019.04 1018.78 1018.48 1018.26 1018.04 1017.82 1017.60 1017.44 1017.26 1017.00 1016.76 1016.68 1016.54 1016.36 1016.26 1015.94 1015.72 1015.46 1015.34 1015.18 1014.98 1014.72 1014.34 1014.16 1014.08 1014.02
1022.40 1022.22 1021.98 1021.74 1021.58 1021.40 1021.24 1021.04 1020.82 1020.58 1020.32 1020.06 1019.86 1019.58 1019.36 1019.24 1019.04 1018.76 1018.52 1018.28 1018.02 1017.80 1017.62 1017.38 1017.12 1016.84 1016.60 1016.38 1016.18 1015.98 1015.90 1015.72 1015.34 1015.06 1014.78 1014.58 1014.46 1014.30 1014.04 1013.88 1013.72 1013.62
1022.28 1022.08 1021.86 1021.64 1021.50 1021.38 1021.18 1020.98 1020.70 1020.44 1020.18 1019.94 1019.70 1019.50 1019.34 1019.14 1018.84 1018.62 1018.38 1018.14 1017.96 1017.62 1017.34 1017.14 1016.96 1016.62 1016.42 1016.14 1015.86 1015.64 1015.46 1015.36 1015.02 1014.74 1014.46 1014.06 1013.92 1013.78 1013.66 1013.56 1013.46 1013.34
1022.18 1021.98 1021.74 1021.56 1021.40 1021.20 1021.02 1020.72 1020.46 1020.20 1020.04 1019.86 1019.64 1019.42 1019.20 1018.90 1018.64 1018.44 1018.18 1017.96 1017.72 1017.44 1017.04 1016.82 1016.68 1016.36 1016.12 1015.84 1015.56 1015.30 1015.08 1014.94 1014.68 1014.38 1014.08 1013.74 1013.54 1013.36 1013.18 1013.08 1013.04 1013.00
1022.18 1022.04 1021.80 1021.54 1021.32 1021.14 1020.86 1020.56 1020.36 1020.08 1019.80 1019.66 1019.52 1019.34 1019.08 1018.76 1018.50 1018.18 1017.90 1017.76 1017.52 1017.22 1016.90 1016.48 1016.30 1016.06 1015.76 1015.54 1015.30 1015.02 1014.74 1014.54 1014.24 1014.00 1013.66 1013.36 1013.14 1013.00 1012.82 1012.62 1012.50 1012.48
1022.26 1022.06 1021.84 1021.60 1021.32 1021.06 1020.84 1020.52 1020.26 1020.16 1019.94 1019.54 1019.30 1019.02 1018.76 1018.54 1018.14 1017.98 1017.72 1017.42 1017.22 1017.08 1016.66 1016.04 1015.74 1015.76 1015.46 1015.24 1015.06 1014.76 1014.46 1014.18 1013.94 1013.68 1013.32 1013.00 1012.76 1012.62 1012.50 1012.32 1012.20 1012.10
1022.34 1022.20 1021.96 1021.74 1021.54 1021.26 1020.94 1020.72 1020.50 1020.08 1019.84 1019.76 1019.44 1018.96 1018.76 1018.46 1018.16 1017.84 1017.66 1017.42 1017.00 1016.80 1016.64 1016.00 1015.44 1015.40 1015.26 1014.92 1014.74 1014.50 1014.24 1013.96 1013.70 1013.42 1013.04 1012.74 1012.46 1012.28 1012.14 1012.02 1011.94 1011.86
1022.52 1022.42 1022.22 1021.96 1021.76 1021.60 1021.30 1020.98 1020.78 1020.54 1020.24 1020.12 1020.04 1019.50 1018.96 1018.60 1018.42 1017.90 1017.46 1017.38 1017.14 1016.66 1016.48 1016.22 1015.36 1015.08 1015.12 1014.64 1014.36 1014.24 1014.06 1013.78 1013.44 1013.12 1012.72 1012.44 1012.18 1011.96 1011.84 1011.76 1011.60 1011.56
1022.66 1022.52 1022.38 1022.16 1021.88 1021.62 1021.50 1021.18 1020.84 1020.62 1020.34 1020.18 1019.92 1019.64 1019.12 1018.62 1018.38 1018.06 1017.44 1017.08 1016.94 1016.62 1016.20 1016.10 1015.46 1014.86 1014.74 1014.48 1014.06 1013.88 1013.76 1013.56 1013.26 1012.96 1012.54 1012.14 1011.92 1011.58 1011.40 1011.38 1011.32 1011.26
1022.70 1022.52 1022.26 1022.10 1021.82 1021.36 1021.14 1021.02 1020.80 1020.46 1020.12 1020.00 1019.64 1019.44 1019.06 1018.52 1018.26 1017.98 1017.54 1016.82 1016.54 1016.42 1016.02 1015.76 1015.46 1014.74 1014.38 1014.28 1013.92 1013.62 1013.44 1013.24 1012.98 1012.78 1012.38 1011.96 1011.66 1011.38 1011.14 1010.96 1011.00 1011.04
Wind_Speed
5 4 5 5 6 6 6 6 6 6 7 6 7 8 8 8 7 7 9 9 10 11 10 10 10 10 9 9 9 7 7 9 9 8 8 9 10 11 12 14 14 14
5 4 4 4 5 5 6 6 7 6 7 7 7 7 7 7 7 7 8 8 8 10 10 10 10 10 10 9 9 9 9 9 9 6 8 10 11 10 14 13 13 13
4 4 4 6 6 7 7 6 5 6 7 7 6 7 7 6 7 7 8 8 8 9 9 10 10 11 11 10 10 10 9 10 12 9 9 10 9 10 11 11 10 12
5 4 5 5 5 7 6 6 6 5 6 6 7 7 7 7 6 8 8 8 8 9 9 9 10 10 10 9 9 9 10 11 11 10 11 10 10 11 11 10 10 10
6 6 5 5 5 5 5 6 7 6 7 7 7 7 6 7 7 8 8 8 8 9 8 9 9 9 9 9 9 9 9 10 10 10 10 12 12 11 12 11 13 13
5 4 5 5 5 5 6 6 7 7 7 7 8 7 7 7 7 8 8 8 8 8 8 8 9 9 8 9 9 9 10 9 10 9 11 12 11 9 9 9 11 12
6 6 6 5 6 5 6 7 6 6 6 7 5 8 7 7 7 8 8 8 8 8 9 9 9 9 8 8 9 10 10 10 10 10 12 11 10 11 10 11 11 12
6 5 5 5 5 6 6 6 6 6 6 6 7 8 6 7 8 7 7 7 8 8 9 9 9 10 9 8 9 10 11 10 10 10 11 12 10 12 10 10 10 12
7 7 7 6 6 6 6 6 6 7 6 6 7 7 6 6 7 7 7 7 8 8 8 9 9 9 8 8 10 10 12 11 11 11 12 12 12 13 11 9 10 11
6 5 5 5 6 6 7 7 7 7 6 6 6 6 7 7 6 7 7 7 8 8 8 9 8 8 8 8 10 11 11 12 11 11 12 12 13 12 11 11 12 12
8 7 8 8 8 7 8 7 7 6 6 6 6 6 7 6 6 6 7 7 8 8 8 8 8 8 9 9 10 10 11 12 11 11 12 12 12 12 11 11 11 12
9 9 10 10 9 9 9 9 8 7 7 6 5 7 7 6 7 6 6 8 7 8 8 9 8 8 9 9 9 9 10 11 11 11 12 12 12 11 11 11 12 12
10 10 9 9 9 9 8 9 9 9 8 9 7 7 7 7 7 7 7 7 8 8 8 9 9 8 9 10 10 10 11 11 11 11 12 11 12 12 11 11 11 11
8 8 8 8 8 8 8 8 9 9 9 8 7 8 8 7 8 8 8 7 8 8 8 7 8 8 9 9 10 10 10 11 10 11 11 11 11 11 11 11 11 12
7 8 7 8 8 8 9 9 9 9 9 9 9 9 8 8 8 7 9 9 8 7 8 7 7 8 7 8 9 10 9 10 11 11 12 12 11 11 11 11 11 11
7 7 8 7 7 8 8 8 8 9 9 9 9 9 9 9 9 9 8 9 10 10 8 8 8 7 9 13 12 11 10 10 10 11 10 11 11 12 11 11 11 11
6 6 6 7 6 7 7 8 8 8 8 8 8 8 9 9 8 9 9 9 10 10 10 9 9 8 13 13 14 16 13 11 11 11 10 11 11 12 13 11 10 11
6 6 6 7 6 7 7 7 7 6 7 8 8 7 8 7 8 8 9 9 9 9 9 9 9 11 14 15 16 16 15 12 11 11 11 10 10 11 11 11 11 10
6 7 7 7 7 7 7 7 6 6 6 6 7 7 7 7 8 8 8 8 8 10 10 9 9 11 13 16 16 16 17 15 11 11 11 11 11 11 11 11 10 10
8 8 9 9 8 7 7 7 7 7 7 7 6 6 7 8 6 7 8 8 8 9 10 9 9 11 15 15 16 17 17 15 12 12 12 12 12 11 10 10 10 10
9 9 10 9 9 8 9 8 8 9 9 7 7 7 8 9 9 9 9 6 8 8 9 10 8 11 13 15 15 17 16 14 11 11 11 11 11 10 10 11 10 10
9 10 9 10 10 11 10 11 11 10 11 10 10 9 8 7 8 6 8 10 8 8 10 12 9 9 14 14 15 16 18 10 9 10 11 11 11 10 10 9 9 9
10 11 11 10 10 11 11 11 12 13 12 9 11 11 11 10 10 10 9 10 12 10 9 12 11 9 12 17 17 18 15 9 8 9 9 10 11 10 9 9 9 8
10 9 10 10 10 10 11 11 10 8 8 7 8 11 12 11 10 12 11 8 9 12 9 10 13 12 12 18 17 16 14 10 9 9 10 9 9 10 8 8 9 12
9 8 8 9 9 9 8 10 10 9 9 8 8 8 10 9 9 10 11 10 8 10 12 11 12 13 12 15 17 15 12 8 8 8 10 9 8 9 8 7 8 8
8 9 9 9 11 12 10 9 9 9 9 8 9 8 9 10 9 9 12 12 9 8 10 9 11 13 11 14 16 16 15 10 8 8 8 10 9 9 8 6 6 6
Wind_Direction
257 253 256 259 257 254 258 253 250 248 251 247 244 247 239 242 234 227 233 235 235 236 236 236 237 242 245 244 242 244 241 244 240 228 226 225 232 229 229 227 220 224
267 260 265 272 277 271 264 258 263 250 258 251 247 252 247 242 239 225 233 235 236 237 238 238 236 236 239 241 240 242 243 240 241 215 221 220 225 222 231 232 230 229
293 289 271 263 268 277 272 270 258 263 258 261 263 253 255 242 247 234 236 234 236 239 241 240 241 239 237 235 234 237 240 242 246 241 234 232 226 224 230 225 229 228
318 281 276 272 267 275 282 280 273 259 265 267 256 258 252 256 241 245 243 237 239 242 241 241 241 243 241 243 242 242 240 240 240 235 236 238 233 233 232 222 229 227
313 314 301 288 282 278 287 279 274 272 263 260 273 262 255 252 248 249 247 245 241 247 247 246 246 246 244 246 242 246 243 247 245 241 243 244 241 238 244 241 242 240
322 307 301 299 297 303 294 279 278 280 278 277 267 273 257 256 254 252 249 247 244 247 251 252 251 249 245 246 246 245 247 247 246 240 244 245 246 237 238 233 236 238
341 333 325 322 316 304 289 282 285 281 277 276 297 277 270 264 258 255 255 251 249 245 246 247 246 249 242 244 245 249 249 249 253 244 246 249 246 247 239 242 244 246
354 343 333 334 325 314 298 295 293 291 286 295 279 280 282 274 269 269 263 259 256 253 251 248 249 250 245 237 242 246 249 245 250 247 249 253 248 250 242 240 243 245
353 353 346 338 334 322 319 312 306 299 297 288 284 287 283 267 273 273 270 267 263 259 256 256 251 251 247 240 244 246 251 251 243 243 244 246 244 245 242 238 241 242
357 328 337 339 351 338 330 324 315 310 308 292 285 290 288 281 269 271 269 264 263 264 260 261 262 257 254 246 247 248 251 252 249 245 247 247 248 248 243 236 237 240
10 6 6 5 1 352 342 331 322 312 307 302 302 295 287 289 283 269 269 264 264 265 267 262 256 257 256 255 252 252 256 258 256 253 250 249 249 248 244 238 239 238
5 3 4 358 352 349 346 339 333 331 325 314 301 299 300 289 287 284 270 273 265 268 267 269 268 262 258 258 258 257 255 257 258 257 257 255 254 250 246 240 240 241
1 358 352 348 347 340 335 338 340 336 334 333 328 313 310 309 300 290 280 271 274 271 269 268 268 262 262 262 261 259 258 258 259 257 257 256 254 253 249 245 243 243
352 341 343 339 334 333 333 334 335 337 337 330 329 330 323 314 309 304 294 281 278 274 270 268 267 266 262 263 262 262 264 264 262 262 261 259 258 254 250 247 245 243
335 336 332 332 332 333 336 336 335 331 329 330 332 330 326 320 313 310 308 303 293 281 283 272 268 268 264 264 270 267 262 266 265 262 262 263 261 256 249 245 245 244
325 323 323 323 326 331 328 325 323 324 324 325 324 321 319 319 322 319 311 305 307 303 296 290 280 273 267 262 257 264 270 268 268 265 263 262 262 262 256 246 245 243
318 314 313 319 314 312 312 314 314 312 312 309 307 309 308 309 310 309 307 305 303 303 304 299 292 285 280 276 275 268 265 268 266 267 262 259 259 258 261 257 249 245
315 317 322 321 323 321 316 308 301 302 303 301 303 305 301 300 299 291 292 292 291 288 285 284 283 281 280 284 280 277 272 269 269 265 264 259 256 257 259 259 257 252
333 336 332 331 333 322 312 309 303 301 303 308 307 296 293 293 288 290 286 285 283 286 284 279 278 277 279 280 278 276 274 271 269 266 265 262 257 254 256 257 256 255
348 345 342 338 334 333 331 328 330 327 318 306 303 307 305 302 299 292 290 287 285 287 289 288 282 283 287 282 279 277 275 273 268 267 265 262 261 256 254 253 250 252
347 343 337 335 334 334 333 332 332 327 328 330 325 322 320 319 317 315 307 299 297 293 291 288 285 276 281 283 282 284 283 277 271 268 265 264 260 256 252 252 248 246
345 340 337 336 336 336 336 334 333 332 329 329 325 321 316 310 306 300 308 312 306 303 305 302 300 294 294 294 293 293 293 285 276 269 267 266 264 258 254 249 248 243
344 339 335 334 334 333 331 331 331 328 328 333 326 323 322 323 319 315 314 313 311 310 305 302 302 304 302 303 304 299 298 286 279 273 269 268 266 263 256 253 246 242
336 336 329 328 328 326 322 317 315 309 307 320 313 312 311 311 311 309 307 304 301 300 299 298 298 300 297 302 299 297 292 287 282 277 273 270 272 266 260 254 248 239
327 325 321 318 316 312 313 310 311 308 304 306 297 295 294 299 302 300 299 298 291 289 296 292 291 295 292 292 294 292 289 279 280 275 279 274 271 271 260 249 250 242
324 323 318 319 316 313 313 307 307 308 306 308 303 300 299 303 302 296 296 295 295 288 288 286 290 292 291 287 289 290 286 281 275 276 272 278 271 270 274 261 245 245